Location: Sungai Dirok
(2.6500°N, 113.5000°E)
Time: 14:42:26
(UTC+00:00)

Daily predictions for brighter satellites

Satellite Brightness Start Highest point End
(mag) Time Altitude Azimuth Time Altitude Azimuth Time Altitude Azimuth
Lacrosse 5 3.7 12:02:28 10° NNE 12:04:56 17° NE 12:04:56 17° NE
Cosmos 1891 Rocket 4.5 12:00:22 10° N 12:06:44 85° W 12:11:29 19° S
OAO 1 Rocket 4.4 12:02:28 10° SW 12:07:45 61° SE 12:08:02 60° SE
Delta 198 4.1 12:02:14 10° WNW 12:08:25 75° SSW 12:09:35 56° SE
BREEZE-M DEB (TANK) 2.7 12:04:40 10° SW 12:07:51 45° WSW 12:07:51 45° WSW
Cosmos 1603 4.0 12:05:04 10° SSW 12:10:36 66° WNW 12:16:12 10° N
Milstar 3 4.3 12:05:04 10° W 12:11:13 30° SSW 12:15:07 23° SSE
CZ-4 R/B 2.5 12:14:59 31° N 12:14:59 31° N 12:17:06 10° N
PAYLOAD B 4.2 12:15:59 62° E 12:16:22 64° ENE 12:21:53 10° N
ATLAS 5 CENTAUR R/B 4.3 12:10:56 10° NW 12:16:47 30° WSW 12:23:09 10° S
NOSS 3-1 (C) 4.4 12:16:17 10° NNW 12:25:25 86° WSW 12:29:49 38° SSE
ARIANE 5 R/B 3.8 12:31:50 10° W 12:34:39 60° W 12:34:39 60° W
Centaur D-1AR AC-39 3.4 12:40:20 10° W 12:43:47 27° NNW 12:43:51 27° NNW
Centaur AC-112 4.2 12:40:27 10° WSW 12:45:06 85° NNW 13:11:33 10° ENE
Cosmos 1943 Rocket 3.6 12:45:41 10° NW 12:50:28 30° WSW 12:51:34 28° SW
Cosmos 2034 Rocket 4.2 12:45:40 10° N 12:51:15 69° NW 12:51:15 69° NW
ARIANE 5 R/B 3.2 12:51:29 10° W 12:56:06 83° N 22:26:55 10° E
ATLAS 3B R/B 3.5 13:14:12 10° NNW 13:19:49 52° NW 13:19:49 52° NW
Cosmos 2263 Rocket 4.1 19:26:21 26° ENE 19:26:21 26° ENE 19:29:34 10° NE
CENTAUR R/B 4.0 19:44:12 21° NNE 19:44:12 21° NNE 19:46:01 10° NNE
Cosmos 2227 Rocket 4.3 19:46:53 17° N 19:46:53 17° N 19:48:07 10° N
ATLAS 2AS CENTAUR R/B 3.6 19:39:30 10° N 19:45:40 43° ENE 19:51:50 10° SE
ARIANE 5 R/B 4.1 19:03:25 10° W 19:53:15 80° S 20:00:18 10° ESE
COSMOS 2428 3.6 19:53:31 10° N 19:58:56 47° ENE 20:04:23 10° SSE
H-2A R/B 3.2 19:57:39 10° NNE 20:02:38 40° ESE 20:03:38 36° SE
SL-16 R/B 4.1 20:08:02 22° NNW 20:08:02 22° NNW 20:10:05 10° NNW
deb Ariane 4.4 20:13:28 33° ENE 20:13:28 33° ENE 20:17:02 10° E
ARIANE 44L R/B 3.4 20:17:02 55° NNW 20:17:16 56° N 20:20:16 10° ENE
USA 234 3.5 20:11:04 10° SE 20:17:34 69° NE 20:24:04 10° NNW
Cosmos 1898 Rocket 4.1 20:21:44 45° NNW 20:21:44 45° NNW 20:25:33 10° N
CBERS-1 4.2 20:21:51 10° NNE 20:26:56 70° ESE 20:28:26 45° S
Cosmos 773 Rocket 3.8 20:24:38 10° NNW 20:29:46 88° WSW 20:32:39 27° S
CZ-3 R/B 4.0 20:04:03 10° NW 20:38:23 57° NNE 20:47:00 10° E
Delta 2 Rocket 3.7 20:39:26 56° S 20:40:08 64° SE 20:45:00 10° ENE
ARGOS 4.4 20:35:35 10° NNE 20:40:35 40° ESE 20:45:36 10° S
SWIFT 3.1 20:42:43 36° SSE 20:42:43 36° SSE 20:46:15 10° E
Cosmos 1937 Rocket 3.8 20:44:42 45° W 20:44:57 45° WNW 20:49:59 10° N
NOSS 0 Rocket 3.9 20:40:23 10° NNW 20:46:36 84° ENE 20:52:51 10° SSE
Cosmos 1934 Rocket 4.3 20:40:43 10° S 20:46:45 64° E 20:52:51 10° NNE
ATLAS 5 CENTAUR R/B 3.4 20:43:32 29° WSW 20:47:47 37° SW 20:53:00 10° SSE
Cosmos 2239 Rocket 4.4 20:44:34 27° SSW 20:48:05 66° W 20:54:14 10° N
GPS 2-15 Rocket1 3.6 20:47:25 40° WNW 20:48:26 47° NNW 20:52:50 10° NE
OAO 3 Rocket 4.1 20:47:50 10° NW 20:52:32 48° NE 20:57:11 10° ESE
Cosmos 1892 Rocket 4.5 20:49:09 10° SSE 20:53:18 46° E 20:57:25 10° NNE
Cosmos 1461 4.0 20:51:32 18° S 20:54:15 42° ESE 20:58:09 10° NE
Cosmos 1939 Rocket 2.7 20:52:39 10° N 20:56:37 66° W 20:57:52 40° SW
ARIANE 44LP R/B 3.3 21:04:27 27° S 21:04:27 27° S 21:06:02 10° SE
USA 215 3.3 21:00:26 10° NNE 21:06:53 66° NW 21:11:32 20° SW
Cosmos 1869 3.3 21:03:42 10° NNW 21:07:13 44° W 21:08:40 29° SSW
Cosmos 2263 Rocket 3.6 21:08:05 19° WNW 21:08:22 19° WNW 21:12:12 10° NNW
ARIANE 3 DEB 2.7 21:07:30 30° WNW 21:08:43 47° N 21:11:09 10° ENE
DMSP B5D2-2 4.2 21:04:51 10° S 21:09:53 51° WSW 21:14:56 10° NNW
Ariane H10+ 2.3 21:08:40 26° SSW 21:09:58 38° SSE 21:17:34 10° E
DELTA-4 R/B 4.0 21:01:56 22° WSW 21:10:20 63° S 21:14:21 10° E
Cosmos 1484 Rocket 4.0 21:07:53 10° NNW 21:10:48 23° WNW 21:10:48 23° WNW
Cosmos 1606 3.2 21:12:12 10° NNW 21:15:25 33° W 21:16:41 25° SW
NOSS 3-2 (C) 3.5 21:14:26 23° WSW 21:16:44 37° WNW 21:21:18 10° N
Cosmos 1437 Rocket 4.0 21:21:49 21° W 21:22:33 22° W 21:25:37 10° NNW
H-2A R/B 3.1 21:21:11 10° NNW 21:24:04 32° W 21:25:40 20° SW
SL-08 RB Rocket 3.6 21:21:28 10° N 21:25:53 83° W 21:30:20 10° SSW
Iridium 4 Rocket 3.3 21:21:59 10° N 21:26:14 75° E 21:30:48 10° S
Cosmos 1538 Rocket 4.4 21:22:37 10° N 21:27:47 70° ENE 21:33:00 10° SSE
ARIANE 5 R/B 2.4 21:23:34 10° N 21:28:29 67° WNW 21:33:26 10° SSW
DNEPR-1 R/B 4.4 21:25:30 10° NW 21:29:32 28° WSW 21:33:10 10° S
Cosmos 1605 Rocket 4.0 21:28:42 10° S 21:35:06 81° W 21:41:27 10° N
Cosmos 1844 Rocket 2.7 21:30:04 10° SSW 21:35:43 83° WNW 21:41:20 10° NNE
ATLAS 2AS CENTAUR R/B 3.8 21:32:02 10° WNW 21:36:13 18° WSW 21:40:27 10° SSW
Cosmos 1867 3.9 21:32:40 10° SSW 21:38:00 70° ESE 21:43:23 10° NNE
Cosmos 1125 Rocket 4.4 21:33:34 10° S 21:38:35 51° ESE 21:43:36 10° NNE
ARIANE 5 R/B 3.5 21:25:33 11° W 21:40:09 63° S 21:43:20 10° ESE
H-2A R/B 3.9 21:39:21 10° NW 21:41:38 13° WNW 21:43:54 10° WSW
COSMOS 2428 4.4 21:41:05 10° W 21:42:52 11° WSW 21:44:40 10° SW
Cosmos 2237 Rocket 2.5 21:37:38 10° NW 21:42:54 42° WSW 21:48:11 10° S
ASC 2 Rocket 4.2 21:39:52 10° SW 21:45:47 43° SSE 21:50:07 10° E
DELTA 2 R/B (1) 3.6 21:40:46 10° WNW 21:46:15 65° SW 21:51:44 10° SE
ARIANE 42L R/B 4.4 21:42:55 10° WSW 21:46:56 54° SSE 22:07:47 10° E
Cosmos 1844 3.7 21:46:16 10° SSW 21:51:50 67° WNW 21:57:28 10° N
Mugunghwa Rocket 4.3 21:45:58 10° WSW 21:52:15 60° NNW 21:59:01 10° NE
Cosmos 1980 4.4 21:47:49 10° NW 21:52:41 30° WSW 21:57:35 10° SSW
